STARLINK-32478, 61726

Orbit data source: Space-Track

STARLINK-32478, 61726 is a payload satellite owned by SpaceX/Seattle (US) in LEO that was launched on Wed, 30 Oct 2024 UTC via an FALCON 9 launch vehicle from the Air Force Eastern Test Range (AFETR). Payload-class satellites include a variety of spacecraft equipped with specific instruments for various scientific and technological missions. These include communications satellites like Starlink; space stations such as the ISS; scientific satellites like the Hubble; Earth observation satellites from companies like Planet Labs, Umbra, and HawkEye 360; GPS; miniature CubeSats for education and research; and military/defense satellites.

Loading next visibility...
Identifier
61726, 2024-196V
Orbit
LEO
Country
Flag of USUS
Related business
Manufacturer
SpaceX/Seattle
Mission
Operational Commercial Communications
Bus & Motor
STARLINK V2M, Unknown motor
Mass
730 kg wet, ~700 kg dry
Launch date (UTC)
Icon of a cake. It is the launch day of the satellite!2024-10-30 (1 year ago)
Launch vehicle
FALCON 9
Launch site
Air Force Eastern Test Range (AFETR)
Object type
Payload
Rocket body
Debris
Shape & HBR
Box + 2 Pan, 17.7 m
Radar Cross Section
33.884 m², Large (>1 m²)

Expand to show TLE details & history
Last TLE update: 11 hours ago

TLE from 11 hours ago
0 STARLINK-32478
1 61726U 24196V   25302.85056156 -.00000959  00000-0 -20274-4 0  9996
2 61726  53.1621 349.1372 0001372  91.9991 268.1166 15.30189721 57124
Epoch: 2025-10-29T20:24Z
TLE epoch observation values (Epoch: 2025-10-29T20:24:48.518Z)
Latitude
-0.00011°
Longitude
4.51718°
Altitude
476.177 km
Speed
7.629 km/s
True Right ascension
23h 16m 32s
True Declination
0° 00' 00"
Sunlit
Object was in full shadow at epoch
Visualization orbit readout
Latitude
Unknown
Longitude
Unknown
Altitude
Unknown
Speed
Unknown
Apparent Right ascension
Unknown
Apparent Declination
Unknown
Sunlit
N/A
Visualization observer readout
Local Sidereal Time
02:40:34
Azimuth
Unknown
Elevation
Unknown
Doppler factor
Unknown
Orbital elements
Apogee altitude
476.442 km
Perigee altitude
474.562 km
Semi-major axis
6,853.639 km
Eccentricity
0.00014
Inclination
53.1621°
RAAN
349.1372°
Arg. of periapsis
91.9991°
True anomaly
268.10089°
Mean anomaly
268.1166°
Eccentric anomaly
268.10874°
Mean motion
3.82526 °/min
Orbital period
94.11 mins
BSTAR
-0.000020274
Loading maneuver chart data...
Computing Atmospheric mass density...
Loading historical data...
Loading historical data...
Loading historical data...
Loading historical data...
Loading historical data...
Loading historical data...
Loading historical data...

Documentation

Showing up to 5 results
|